Regional Weather Roundup
Issued by NWS

Home | Current Version | Previous Version | Text Only | Print | Product List | Glossary On
Versions: 1 2 3 4 5 6 7 8 9 10 11 12 13 14 15 16 17 18 19 20 21 22 23 24 25 26 27 28 29 30 31 32 33 34 35 36 37 38 39 40 41 42 43 44 45 46 47 48 49 50
000
ASUS45 KREV 302310
RWRNV
NEVADA REGIONAL WEATHER ROUNDUP
NATIONAL WEATHER SERVICE RENO NV
400 PM PDT THU JUL 30 2015

NOTE: "FAIR" INDICATES FEW OR NO CLOUDS BELOW 12,000 FEET WITH NO
SIGNIFICANT WEATHER AND/OR OBSTRUCTIONS TO VISIBILITY.

NVZ001-003-004-310000-
WESTERN NEVADA

CITY           SKY/WX    TMP DP  RH WIND       PRES   REMARKS
RENO           MOSUNNY   96  22   7 VRB5      30.17F
CARSON CITY    FAIR      95  18   6 NE12      30.20F
MINDEN         FAIR      93  25   8 NW10G17   30.19S
SLIDE MTN        N/A     70  39  32 E9          N/A
PYRAMID LAKE     N/A     88 N/A N/A VRB3        N/A
FALLON         MOSUNNY  100  19   5 E5        30.13F
LOVELOCK       SUNNY     98  19   6 CALM      30.13F
HAWTHORNE      SUNNY     97  23   7 SW7       30.14F
$$

NVZ002-CAZ072-073-310000-
NORTHERN AND CENTRAL SIERRA

CITY           SKY/WX    TMP DP  RH WIND       PRES   REMARKS
S. LAKE TAHOE  MOSUNNY   85  27  12 NE7       30.33F
SQUAW VLY 8000   N/A     77  30  18 SE7         N/A
SUSANVILLE     SUNNY     97  28   9 NE5       30.17F
BLUE CANYON    MOSUNNY   87  37  17 W9        30.27F
MAMMOTH LAKES  CLOUDY    79  34  19 SE8       30.41S
BRIDGEPORT     PTSUNNY   83  29  14 NE8       30.34F
$$

NVZ030-031-036-310000-
NORTHERN NEVADA

CITY           SKY/WX    TMP DP  RH WIND       PRES   REMARKS
ELKO           SUNNY     93  19   7 S7        30.24F
WINNEMUCCA     SUNNY     97  19   6 NW13      30.19F
WENDOVER       SUNNY     91  28  10 SE8       30.22F
$$

NVZ035-037-310000-
CENTRAL NEVADA

CITY           SKY/WX    TMP DP  RH WIND       PRES   REMARKS
ELY            MOSUNNY   90  19   7 NW12G17   30.30F
EUREKA           N/A     91  16   6 CALM      30.28F
$$

NVZ013-014-310000-
SOUTH CENTRAL NEVADA

CITY           SKY/WX    TMP DP  RH WIND       PRES   REMARKS
TONOPAH        CLOUDY    86  34  15 S23G36    30.28S
$$

NVZ017-020-022-310000-
SOUTHERN NEVADA

CITY           SKY/WX    TMP DP  RH WIND       PRES   REMARKS
LAS VEGAS      MOSUNNY  103  45  14 CALM      29.92F
N. LAS VEGAS   MOSUNNY  102  46  15 VRB3      29.95F
NELLIS AFB     SUNNY    104  43  12 VRB5      29.91F
HENDERSON      SUNNY    102  44  14 VRB3      30.00F
MERCURY        PTSUNNY  100  39  12 N9        30.05F
$$



USA.gov is the U.S. government's official web portal to all federal, state and local government web resources and services.